Location: Grange Verzio
(44.5000°N, 6.9833°E)
Time: 06:40:54
(UTC+00:00)

ATLAS CENTAUR R/B - Pass Details

Date: 01 February 2023
Orbit: 450 x 653 km, 64.7° (Epoch: 19 March)

Event Time Altitude Azimuth Distance (km) Brightness Sun altitude
Rises 19:01:09 0° 272° (W) 2,970 6.4 -25.2°
Reaches altitude 10° 19:04:45 10° 301° (WNW) 2,034 5.0 -25.8°
Maximum altitude 19:06:54 13° 328° (NNW) 1,821 4.3 -26.2°
Drops below altitude 10° 19:09:00 10° 356° (N) 1,991 4.2 -26.6°
Enters shadow 19:09:05 10° 357° (N) 2,003 4.2 -26.6°
